Location: Topeka
(39.0480°N, 95.6780°W)
Time: 03:37:05
(UTC-05:00)

ISS - Visible Passes

Search period start: 24 September 2017 00:00
Search period end: 04 October 2017 00:00
Orbit: 401 x 407 km, 51.6° (Epoch: 24 September)

Date Brightness Start Highest point End Pass type
(mag) Time Alt. Az. Time Alt. Az. Time Alt. Az.
24 Sep -1.7 19:43:50 10° SSE 19:45:15 12° SE 19:46:40 10° ESE visible
24 Sep -1.9 21:18:05 10° WSW 21:19:46 27° WSW 21:19:46 27° WSW visible
25 Sep -3.9 20:25:48 10° SW 20:29:01 64° SE 20:30:18 32° ENE visible
26 Sep -2.9 19:33:53 10° SSW 19:36:47 30° SE 19:39:43 10° ENE visible
26 Sep -2.0 21:10:20 10° W 21:13:14 29° NNW 21:13:18 29° NNW visible
27 Sep -3.0 20:17:37 10° WSW 20:20:48 50° NW 20:23:25 14° NE visible
28 Sep -1.3 21:02:59 10° WNW 21:05:15 17° NNW 21:06:03 16° N visible
29 Sep -1.8 20:09:54 10° W 20:12:41 25° NNW 20:15:28 10° NNE visible
30 Sep -1.0 20:55:59 10° NW 20:57:20 12° NNW 20:58:17 11° N visible
01 Oct -1.2 20:02:35 10° WNW 20:04:38 15° NNW 20:06:43 10° NNE visible
03 Oct -1.0 19:55:37 10° NNW 19:56:40 11° NNW 19:57:44 10° N visible
